Location: Palomar Mountain Lodge
(33.3110°N, 116.8495°W)
Time: 02:04:42
(UTC-07:00)

Lacrosse 4 Rocket - Pass Details

Date: 12 July 2018
Orbit: 541 x 619 km, 68.0° (Epoch: 19 September)

Event Time Altitude Azimuth Distance (km) Brightness Sun altitude
Rises 20:37:56 0° 199° (SSW) 2,814 4.8 -7.9°
Reaches altitude 10° 20:40:09 10° 198° (SSW) 1,927 3.9 -8.3°
Maximum altitude 20:44:29 76° 112° (ESE) 628 1.4 -9.1°
Drops below altitude 10° 20:48:56 10° 28° (NNE) 1,974 4.2 -9.9°
Sets 20:51:13 0° 27° (NNE) 2,888 5.1 -10.2°
